Theta_e
314 315 315 314 314 315 316 316 314 315 315 316 315 315 314 314 314 315 316 316 315 315 315 316 316 315 316 316 318 316 316 318 318 323 332 336 337 339 341 343 342 341 339 342 344 345 344 343 342 340 340 339 338 338 337 336 336 335 334 334 332 331 330 328 325 323 325 326 325 325 325 324 323 325 328 329 330 330 328 326 324 325 325 326 326 327
313 315 315 314 315 316 317 319 319 318 317 318 317 315 314 314 315 317 316 317 317 316 316 316 317 316 317 317 318 317 317 320 319 323 332 335 336 337 341 342 342 340 340 342 344 345 344 342 341 340 339 338 337 337 336 336 336 334 332 333 332 332 330 327 324 322 323 324 324 323 321 318 318 323 328 329 330 328 325 325 323 322 323 324 327 328
314 314 314 314 316 317 318 319 321 321 320 319 318 316 316 315 316 318 318 318 317 317 316 316 317 318 319 318 319 320 319 321 320 325 332 335 334 335 338 339 339 340 342 342 342 344 343 340 339 339 337 337 336 335 334 334 335 333 332 332 332 332 330 326 325 323 323 323 321 319 316 315 319 324 326 326 327 326 322 322 322 321 322 323 325 326
314 313 313 314 315 317 319 319 321 322 321 319 319 317 316 316 316 316 319 320 320 322 321 317 319 323 323 318 320 320 319 321 321 324 332 334 334 334 335 336 337 339 341 342 342 342 338 334 334 335 336 336 335 334 333 332 332 333 333 332 330 331 328 325 325 323 322 321 317 316 317 319 321 323 322 320 321 321 319 320 321 322 324 324 323 324
314 313 312 313 314 316 318 320 322 323 321 320 320 318 317 317 316 317 319 322 326 328 329 325 324 328 326 318 320 322 319 322 322 321 327 332 335 335 335 336 337 337 339 341 341 336 333 332 333 333 335 335 333 332 332 330 329 331 332 332 331 330 327 325 324 323 321 318 316 318 321 322 322 322 321 316 316 318 320 321 321 323 326 325 322 323
313 313 314 314 314 314 317 319 321 322 321 322 323 321 319 318 318 319 319 321 322 324 328 325 320 326 329 319 321 324 319 321 322 320 326 332 338 337 337 338 337 338 339 340 338 334 333 334 334 333 334 334 331 331 332 330 329 330 331 332 330 329 327 325 325 324 323 320 319 320 320 320 322 325 322 315 317 322 323 321 321 324 326 326 325 324
312 314 315 316 316 316 315 316 319 322 321 320 323 322 320 319 318 319 319 317 318 321 326 324 318 324 329 323 322 323 319 321 323 323 330 333 336 336 336 336 337 338 338 337 337 335 335 334 333 333 333 333 332 332 332 330 330 332 332 330 327 326 326 325 325 325 325 324 322 322 320 321 324 323 320 319 322 325 324 320 321 324 324 325 326 326
314 315 316 318 319 317 316 317 320 323 321 319 322 320 318 317 317 319 318 316 318 322 323 322 319 320 323 326 326 322 319 322 323 325 332 334 334 334 335 334 336 337 336 336 335 335 335 333 333 333 333 333 331 331 331 330 331 331 330 327 324 323 324 325 325 326 324 322 321 319 319 322 323 321 319 323 325 325 325 321 319 319 318 320 322 322
318 318 318 319 318 318 317 318 321 321 320 320 320 318 317 315 316 318 316 317 320 320 318 320 321 319 320 326 327 323 320 321 324 326 331 335 334 333 335 335 336 336 335 335 332 332 333 332 333 333 332 330 328 327 328 328 329 329 327 325 324 322 323 324 326 326 322 318 317 316 318 320 321 323 323 324 325 325 322 316 314 315 315 320 322 321
319 319 318 317 317 318 318 318 319 318 319 320 318 318 317 315 317 317 316 319 320 320 320 322 321 318 321 326 323 320 321 321 323 326 331 335 334 334 335 335 336 335 333 334 332 332 332 331 332 332 331 327 325 325 325 325 327 328 327 325 323 322 323 323 325 325 320 317 317 318 322 323 323 326 325 323 323 320 316 314 316 319 321 323 324 323
317 317 318 317 317 317 318 318 318 317 318 318 317 317 316 316 318 317 318 319 318 321 324 323 322 319 322 329 325 321 324 323 326 332 333 333 333 333 334 335 335 334 333 333 332 332 331 329 329 329 329 327 326 325 324 324 327 329 327 324 323 322 323 323 324 324 319 317 319 320 323 324 323 323 321 317 315 312 313 316 320 322 322 323 322 322
315 316 317 317 317 317 317 317 317 316 315 316 317 316 316 318 319 316 316 317 317 322 324 320 322 319 320 330 332 327 329 327 328 333 334 332 331 332 332 333 334 334 333 333 332 331 329 328 327 327 329 329 327 327 325 325 327 329 328 325 323 323 323 324 323 321 318 318 321 321 322 322 320 318 316 312 309 309 313 316 319 320 320 322 321 320
317 317 316 317 317 317 316 316 315 316 315 316 317 315 315 318 320 316 316 317 319 324 324 319 319 321 323 329 330 329 329 328 328 331 333 331 331 332 332 333 333 333 333 332 332 332 330 329 328 328 331 330 328 327 326 324 326 329 329 327 325 323 324 324 322 320 320 321 322 320 320 321 318 316 314 311 309 311 314 317 319 320 321 324 322 319
318 317 315 315 317 316 316 316 315 316 317 316 316 316 317 318 318 318 318 317 318 320 321 319 318 323 328 327 327 328 327 326 328 329 331 331 332 334 333 333 333 332 332 331 331 332 331 330 328 329 332 331 330 330 327 325 325 326 327 326 324 323 323 323 321 320 321 321 320 319 320 321 318 315 314 311 310 313 316 319 321 321 322 323 322 322
317 318 317 316 316 316 316 315 315 317 318 317 317 318 320 320 318 318 319 318 320 323 324 321 319 322 329 329 326 327 325 325 328 330 331 331 332 334 333 333 333 331 331 331 331 331 331 330 329 331 332 331 331 331 328 325 325 325 325 324 323 323 322 322 321 320 320 321 320 319 321 322 320 316 314 312 313 317 319 322 323 323 322 322 322 324
314 318 320 315 315 316 315 316 315 315 317 321 319 315 319 324 320 318 322 324 325 327 326 323 323 326 331 331 326 325 325 325 327 329 329 330 332 332 332 332 331 331 331 331 331 331 331 331 330 331 332 331 331 330 328 327 327 326 326 324 323 322 321 321 320 320 320 321 321 322 323 324 321 317 315 315 318 321 321 322 323 323 322 322 322 322
314 320 321 314 315 316 314 317 315 313 321 327 321 314 319 326 324 322 327 329 326 324 323 325 328 327 328 330 326 324 326 326 326 328 328 329 330 330 330 330 330 331 332 332 332 331 331 332 331 330 330 331 331 329 328 327 327 327 326 324 323 323 322 321 320 320 321 322 322 324 325 326 323 319 317 317 321 322 321 321 323 322 321 321 321 321
318 321 322 315 316 316 314 317 316 313 322 324 318 317 319 321 324 327 327 326 323 321 322 327 329 326 327 331 329 326 327 328 328 327 328 329 331 330 328 329 329 330 332 332 331 332 332 333 333 331 329 330 330 330 328 327 326 326 325 325 324 324 323 322 322 321 321 322 325 326 327 326 324 322 319 319 322 322 320 320 321 320 319 319 319 317
317 318 322 318 316 318 315 315 316 315 317 319 317 320 323 326 330 329 325 324 324 322 321 324 329 328 328 330 332 331 329 330 329 327 328 330 331 332 331 329 330 330 331 330 330 331 331 333 333 332 329 328 329 329 327 326 326 325 325 325 324 323 323 323 323 321 321 323 327 327 327 327 326 324 322 321 321 320 318 318 317 317 316 314 313 309
319 321 324 322 317 319 318 316 318 319 315 316 318 318 323 332 334 330 326 323 324 328 325 324 329 333 329 326 331 333 329 329 328 327 328 328 328 331 331 329 329 329 329 329 328 329 329 330 332 332 331 329 329 329 328 327 326 325 325 325 323 323 323 325 323 321 322 325 327 328 327 327 328 326 325 323 320 317 317 316 315 314 312 310 307 305
320 323 325 326 320 319 322 320 318 319 317 316 318 318 319 324 325 325 326 321 321 330 331 327 330 334 330 326 328 331 329 328 328 327 328 327 326 328 330 329 329 328 329 328 328 327 327 328 330 331 330 329 328 328 328 328 327 326 326 325 324 324 324 325 323 321 322 325 327 327 327 328 328 325 325 324 320 316 317 316 314 311 309 308 306 305
321 323 327 329 322 319 323 321 316 317 318 316 318 320 321 325 325 324 326 325 323 328 330 330 332 332 330 328 327 329 329 328 326 327 327 326 325 326 328 329 329 329 330 329 328 327 328 329 329 329 329 327 326 327 326 326 328 328 328 327 327 327 326 325 323 321 322 324 326 327 327 328 327 325 325 324 320 317 318 317 314 309 308 308 306 306
323 324 322 322 320 318 319 319 317 318 317 317 318 317 320 326 329 327 328 330 329 326 325 330 333 332 330 329 327 327 327 326 325 326 325 325 324 325 326 327 329 329 329 330 329 328 328 328 327 327 328 327 326 326 325 325 327 328 328 328 327 326 326 325 323 321 321 323 325 326 327 328 327 325 324 322 319 319 319 318 314 309 308 309 308 309
322 324 322 324 328 327 321 318 319 317 317 321 320 318 320 320 322 325 326 329 332 329 326 330 331 328 326 326 327 325 325 325 324 325 325 324 324 324 325 326 328 329 329 329 329 328 328 327 326 326 327 327 325 325 325 326 326 326 326 327 326 325 326 326 324 322 323 325 325 324 326 327 326 325 324 321 319 320 320 319 315 308 308 310 310 312
322 325 325 328 333 332 325 321 323 321 320 321 319 319 321 320 325 327 322 325 328 324 324 330 329 325 324 326 326 325 324 324 324 323 324 324 324 323 324 324 325 327 328 328 327 327 326 326 325 325 325 325 325 325 326 327 326 325 324 324 324 324 325 325 324 324 325 326 325 324 325 324 323 323 323 321 321 322 321 320 316 309 310 312 311 314
324 326 324 326 330 330 326 323 324 323 321 320 319 320 320 322 327 326 321 326 326 322 327 332 328 325 325 325 325 325 325 325 324 323 323 324 323 323 323 323 323 324 325 326 326 325 325 325 325 326 325 325 326 325 326 326 326 325 323 322 322 322 322 322 322 323 323 324 324 325 325 325 324 324 324 323 323 323 322 321 317 311 311 314 313 315
324 326 323 323 328 332 329 322 320 320 320 320 320 319 321 323 323 324 329 332 326 326 332 328 325 327 327 325 325 325 325 324 324 323 323 323 323 322 323 323 323 322 321 322 323 324 324 325 325 325 325 325 326 326 326 326 326 325 324 323 322 323 324 322 322 322 322 323 325 326 325 325 324 324 325 324 324 324 322 321 319 315 313 314 315 316
324 324 324 323 323 325 323 320 320 320 318 318 319 320 321 322 322 324 330 329 325 329 331 324 324 328 327 325 325 324 323 323 323 323 322 323 323 322 323 322 320 317 315 315 316 317 318 321 323 324 324 324 323 324 325 325 326 325 325 325 324 324 325 324 324 324 322 322 325 326 325 324 324 324 325 325 324 324 322 321 321 320 316 315 315 315
320 321 323 322 321 319 319 320 322 322 319 319 321 321 320 322 324 324 323 322 326 332 330 325 326 328 327 326 324 323 322 322 322 322 322 322 321 321 321 319 316 312 310 310 311 310 311 313 316 317 319 321 321 322 323 323 324 324 323 324 324 323 324 324 324 324 322 322 323 323 323 325 324 324 324 325 324 324 324 322 322 322 319 318 318 317
320 322 322 321 320 319 318 319 319 320 319 319 320 319 318 321 324 324 323 322 325 328 327 325 326 326 326 324 323 322 322 321 322 322 322 322 322 321 319 315 311 309 309 308 308 308 308 308 309 310 312 315 317 318 319 320 321 322 322 322 323 323 323 323 324 323 322 323 323 322 323 325 325 325 325 325 324 325 325 324 324 323 321 320 321 320
321 322 320 319 320 320 318 318 318 318 318 319 319 319 319 322 323 324 324 324 324 324 323 323 325 324 322 320 320 321 321 319 319 319 319 318 318 317 313 310 308 308 308 308 307 307 307 307 308 308 308 310 311 312 313 315 316 318 319 321 321 321 322 322 322 322 321 323 323 322 323 324 323 324 324 324 325 325 325 325 325 324 322 321 321 321
324 323 319 318 321 322 319 318 317 318 319 321 321 319 320 323 324 324 325 324 323 322 320 321 323 322 320 319 318 316 314 312 311 311 310 310 310 310 308 307 307 307 307 307 307 307 307 307 308 307 307 308 309 309 310 311 312 313 315 318 319 319 319 319 320 320 319 320 320 320 321 321 320 320 320 320 321 321 323 324 325 324 323 322 321 321
324 324 321 319 320 320 318 319 321 321 323 322 319 317 317 320 322 323 324 322 320 319 320 320 320 321 320 317 313 310 308 307 307 307 306 305 306 306 306 307 308 308 308 308 307 307 308 307 307 307 307 307 308 309 309 310 310 310 311 314 315 316 316 316 317 316 315 316 316 316 317 319 319 319 318 319 318 318 319 322 324 324 323 322 321 321
321 323 323 319 319 319 318 321 324 324 322 320 317 315 316 319 321 322 323 322 319 320 321 319 319 321 319 314 309 307 307 306 306 306 306 306 306 306 306 307 308 308 309 309 309 308 308 308 307 307 307 308 308 308 308 309 310 310 310 311 312 313 313 314 314 314 314 314 314 314 314 315 315 316 316 318 319 318 319 321 321 321 321 322 322 322
322 324 323 319 319 318 318 322 324 322 319 318 316 313 313 317 319 320 321 320 318 319 319 318 318 318 314 309 307 306 306 306 306 306 306 307 307 307 307 307 308 308 308 308 308 308 308 308 308 308 308 309 308 309 309 309 309 310 310 311 311 312 313 313 314 314 314 314 314 314 314 314 314 314 314 315 316 316 318 319 320 319 319 319 320 321
322 321 320 319 319 318 318 321 322 319 316 316 315 312 311 314 317 319 319 316 313 316 317 316 315 313 309 307 306 305 304 304 304 305 306 307 308 308 307 306 306 307 307 306 306 306 307 308 308 309 310 309 309 310 310 309 309 309 310 310 311 313 313 314 314 314 314 314 313 313 313 313 314 314 314 315 315 314 315 316 317 318 318 317 317 318
320 320 319 319 318 318 320 321 319 318 317 315 314 312 309 310 313 316 318 315 312 314 314 311 310 308 306 306 305 304 305 304 304 303 304 305 306 306 306 305 305 306 306 305 305 305 306 307 307 308 308 308 309 310 310 309 310 310 309 309 310 312 312 312 312 312 312 311 311 310 310 310 310 311 312 312 313 314 314 314 314 316 316 316 316 316
317 319 319 319 318 317 319 319 318 319 318 315 314 312 309 308 309 313 317 316 313 312 310 308 308 306 305 306 305 305 306 307 305 303 303 303 304 304 304 304 304 304 304 304 304 304 304 305 305 306 307 307 308 308 308 309 309 308 308 307 307 308 309 309 309 309 309 308 308 307 308 308 308 308 308 309 309 310 311 312 313 314 315 315 315 315
314 315 317 319 319 316 318 319 317 317 316 312 311 311 310 308 308 312 316 315 312 311 308 306 307 306 306 307 306 307 309 309 306 304 303 302 303 303 302 301 300 300 301 301 301 301 302 302 302 302 303 303 303 304 305 306 307 307 308 308 308 308 308 308 308 307 307 306 305 305 305 306 306 306 306 306 306 306 307 308 310 311 312 314 314 315
314 315 315 317 318 317 317 317 315 313 312 310 309 309 309 307 310 314 317 315 313 311 308 306 307 307 308 308 307 307 308 307 305 304 303 303 303 302 301 301 300 299 299 300 300 300 301 301 300 300 299 298 298 299 299 300 301 302 303 304 305 305 305 305 304 303 303 302 302 302 302 303 303 303 303 303 303 303 304 304 305 306 307 308 309 310
315 315 314 314 315 315 315 315 313 312 310 308 308 308 307 309 313 315 315 314 311 309 308 308 308 307 306 307 307 306 306 305 304 304 304 303 303 302 301 301 300 299 299 299 300 300 301 300 301 301 299 298 298 297 296 296 297 297 298 298 298 299 299 299 299 298 298 298 299 299 299 299 299 299 299 301 301 302 302 301 301 301 302 302 302 302
313 313 313 313 313 314 313 313 312 311 309 307 308 308 308 311 313 311 309 309 308 307 307 307 306 306 305 305 304 304 304 304 303 303 302 302 302 301 301 300 300 299 299 299 299 300 300 301 301 300 299 299 298 297 296 296 297 297 297 297 297 298 298 298 298 298 298 298 298 298 298 298 298 298 298 298 298 299 299 299 299 299 299 299 299 300
310 312 313 311 311 312 313 312 311 310 308 306 308 308 308 310 310 308 306 307 306 306 306 306 305 305 305 304 304 303 303 303 303 302 302 301 301 301 301 300 300 300 300 300 299 298 300 301 300 300 300 300 299 298 298 299 299 299 299 299 299 299 299 299 300 300 300 299 299 299 299 299 299 298 298 298 298 298 298 298 297 298 299 300 300 301
309 311 313 310 309 311 312 310 309 308 307 305 307 307 306 306 307 306 306 305 305 304 305 305 304 304 304 304 303 303 303 303 302 302 302 301 301 301 301 300 300 300 300 300 299 298 299 300 300 300 301 300 299 300 301 300 300 300 301 300 300 300 300 300 300 300 300 300 300 299 299 299 299 299 299 299 299 299 298 298 298 298 299 300 301 302
309 309 310 309 308 309 309 309 307 306 305 305 306 305 304 304 305 305 304 303 303 303 303 304 304 304 304 304 303 303 303 302 302 302 302 301 301 301 301 300 300 300 300 300 300 298 298 300 300 301 300 299 299 301 301 300 301 300 300 300 300 300 300 300 300 300 300 300 300 300 299 299 299 299 299 299 299 299 299 299 299 299 299 299 300 301
306 307 307 308 307 307 307 307 306 305 305 305 305 304 304 304 303 304 304 303 302 303 303 303 303 302 303 303 302 302 302 301 301 301 301 301 301 301 301 301 300 300 300 301 300 298 298 300 301 300 300 300 300 301 300 300 300 300 300 300 300 300 300 300 300 300 300 300 300 299 299 299 298 298 299 298 298 299 299 299 299 299 300 300 300 300
305 306 308 308 307 307 307 306 305 305 305 304 304 303 303 303 303 303 303 303 303 303 303 303 304 303 302 302 301 301 301 301 301 301 301 301 301 301 301 301 300 300 300 300 299 298 299 300 301 300 300 300 300 300 300 300 300 300 300 300 300 300 300 300 300 300 299 299 299 299 298 298 298 298 298 297 298 298 298 299 299 299 300 300 300 300
305 306 308 308 307 308 307 305 304 305 304 304 304 303 302 303 303 302 302 301 301 302 302 302 303 302 301 301 301 301 301 300 300 300 300 300 300 301 300 300 300 300 300 299 298 298 299 300 300 300 300 300 300 300 300 300 300 300 300 300 300 300 299 299 299 298 298 298 298 298 298 297 297 297 297 297 297 296 297 297 298 298 299 299 299 299
305 306 306 306 306 307 306 305 304 304 304 303 303 303 302 302 302 302 302 301 300 301 300 300 301 300 300 300 301 301 301 300 299 299 300 300 300 300 300 300 299 299 299 298 298 299 299 299 299 299 299 299 300 300 300 299 300 300 299 299 299 299 298 298 298 297 297 297 296 296 296 296 296 297 297 296 296 295 295 296 296 297 297 298 298 298
305 305 306 307 307 307 306 305 305 305 304 303 303 303 303 302 302 302 302 301 301 301 301 300 300 300 300 300 300 300 300 300 299 299 299 300 300 299 299 299 299 298 298 298 298 299 299 299 299 299 299 299 299 299 299 299 299 299 299 299 299 298 298 298 297 296 296 295 295 295 295 295 295 295 295 295 295 295 295 295 295 296 296 297 297 298
304 305 306 307 308 307 305 305 304 304 304 303 303 303 302 302 302 302 301 301 301 301 301 301 300 300 300 300 300 300 300 300 299 299 299 299 298 298 298 298 298 297 297 298 298 299 299 299 298 299 299 299 299 299 299 299 299 298 299 298 298 298 297 297 296 295 295 295 295 295 295 294 294 295 295 295 294 294 294 295 295 295 296 296 296 297
Wind_Speed
11 4 5 7 6 7 8 10 11 10 10 11 10 8 8 7 6 10 13 14 13 8 13 14 11 13 16 12 12 18 18 14 14 20 26 29 30 29 29 29 31 32 29 28 28 26 26 27 24 22 21 20 23 27 29 28 27 27 24 25 26 25 23 23 22 20 20 22 21 18 17 16 15 14 12 10 8 6 6 6 6 5 4 4 4 3
10 6 7 9 8 9 10 10 11 12 13 11 8 7 8 7 6 10 12 13 12 6 10 13 10 11 14 12 12 15 14 9 11 17 22 28 29 30 30 29 30 29 28 28 27 26 25 25 24 23 22 22 24 26 28 28 27 27 26 25 25 25 23 23 22 21 21 22 21 19 18 16 15 14 13 12 10 7 6 7 6 5 5 4 4 4
6 7 9 10 9 10 11 11 10 12 12 9 6 6 6 7 7 10 14 16 10 5 8 14 11 8 10 12 12 10 9 9 14 20 28 32 29 30 31 30 31 28 29 28 26 27 24 22 24 23 21 22 25 25 25 26 26 26 28 26 25 25 23 23 23 23 23 22 20 19 18 17 16 14 12 10 9 6 6 6 6 6 6 5 4 3
4 7 11 11 10 11 11 12 10 9 9 8 6 5 6 8 7 5 11 14 7 3 7 11 7 4 6 9 9 8 10 15 21 25 35 39 34 34 35 34 33 30 30 29 27 25 18 16 16 16 22 24 21 20 23 25 26 26 28 27 26 26 25 25 26 25 24 24 22 20 19 16 15 13 10 8 8 7 7 6 6 7 7 5 3 3
7 9 12 12 12 12 10 11 10 6 5 7 8 6 6 9 8 6 8 10 7 3 4 8 3 4 4 5 6 7 7 11 18 19 25 34 35 35 35 32 32 30 28 27 23 19 16 17 16 16 23 23 16 18 23 26 28 29 28 28 29 27 26 26 26 26 25 25 23 21 19 16 15 13 9 9 10 9 8 7 8 8 7 5 3 2
11 14 13 12 13 14 11 10 9 6 3 4 6 7 7 11 11 9 11 9 6 6 3 7 4 5 5 3 5 6 4 6 11 11 15 27 32 32 32 28 28 26 22 22 22 21 19 17 12 13 16 14 15 20 23 25 28 30 30 30 30 28 26 26 25 25 25 25 23 21 19 17 16 14 10 10 11 11 8 7 9 10 10 9 6 4
8 14 12 12 14 14 12 10 10 8 4 3 4 5 7 11 11 10 10 6 2 4 4 3 4 3 5 4 6 5 6 7 9 9 12 23 30 29 30 29 28 24 21 22 19 18 20 18 12 12 13 15 19 21 22 25 27 30 32 31 30 28 27 27 26 25 24 23 22 21 19 16 15 14 12 12 11 10 9 8 9 10 10 11 9 7
8 12 11 11 10 10 10 8 7 8 5 3 4 6 10 10 11 9 6 6 3 3 4 1 5 2 3 5 7 6 6 5 6 10 11 18 25 27 28 27 25 22 22 22 21 20 19 17 16 19 21 22 22 20 22 25 27 31 32 31 30 29 29 28 27 25 23 23 22 21 20 16 14 13 13 13 11 11 10 7 8 7 7 9 8 7
8 11 10 9 7 5 6 6 6 7 4 4 4 8 11 11 12 9 5 5 2 0 4 3 4 3 3 5 7 8 6 4 5 10 11 15 23 27 26 23 21 21 21 23 26 26 21 17 19 25 25 22 20 19 21 23 26 31 32 30 30 30 30 29 27 25 24 24 23 21 19 17 16 14 12 12 12 11 10 8 7 6 6 6 6 5
6 9 11 9 6 5 4 5 5 5 3 5 7 9 10 9 10 7 6 4 2 2 5 4 2 3 3 6 4 5 5 6 6 6 9 15 23 28 25 23 23 23 24 23 25 25 22 20 22 24 22 22 24 24 22 23 26 30 31 29 29 31 32 31 29 27 26 26 24 20 17 17 17 15 13 13 12 11 10 10 9 7 6 6 7 7
8 9 10 7 5 4 3 2 4 5 7 7 7 8 7 8 7 5 5 3 4 3 5 3 1 3 2 6 2 0 5 7 5 8 9 14 21 24 24 27 25 25 25 22 22 24 24 24 22 21 23 29 31 30 28 28 30 32 33 31 30 32 34 33 30 28 28 28 23 19 17 17 17 15 14 14 13 12 12 11 9 8 8 8 8 9
11 8 5 5 9 6 2 3 5 8 10 6 5 5 4 5 4 3 3 3 3 4 5 4 4 4 4 5 3 1 5 3 8 14 10 11 15 18 23 28 26 25 25 21 22 26 28 26 20 20 29 33 34 33 33 32 33 35 35 34 33 34 34 32 31 30 29 28 23 19 18 18 17 15 15 15 14 14 13 11 10 8 6 6 7 8
8 7 5 4 10 8 3 3 5 6 7 6 5 4 3 3 3 2 3 4 3 4 5 7 6 5 4 4 2 3 8 7 10 16 17 16 16 19 25 30 30 28 25 24 25 26 26 24 20 26 34 35 36 36 32 31 33 35 35 35 34 33 33 31 29 30 28 26 22 18 17 17 17 16 15 16 15 15 13 11 9 7 5 6 6 5
4 5 7 4 5 7 5 4 4 4 4 7 6 4 4 2 1 2 3 2 3 4 5 7 7 5 2 1 4 6 8 10 12 16 24 27 24 26 29 33 33 29 27 28 27 25 25 26 28 33 37 37 37 35 31 29 30 30 30 30 31 32 32 29 28 28 26 24 20 17 17 17 16 15 15 16 16 15 12 10 8 8 7 7 6 4
2 5 6 4 2 8 8 6 5 5 4 4 5 5 4 4 3 3 2 3 3 3 3 5 4 3 2 2 4 7 9 16 19 17 23 28 27 30 31 30 30 28 27 27 27 27 28 30 32 36 39 38 34 31 31 29 26 26 26 26 27 29 29 29 27 27 25 23 21 19 18 17 16 15 15 16 16 13 11 10 9 9 9 8 8 6
4 5 6 9 9 9 9 8 7 6 5 2 2 3 3 4 4 3 2 4 4 1 2 1 1 1 3 2 2 9 11 16 19 17 20 24 26 29 29 26 25 25 23 22 24 28 30 30 32 34 36 36 32 29 31 30 28 29 28 26 26 25 26 27 27 27 26 23 21 21 19 18 17 16 15 17 17 14 12 12 12 12 11 10 9 7
3 5 4 8 12 11 10 8 7 6 3 2 1 3 6 6 6 2 2 1 3 3 2 0 1 3 2 1 2 8 11 11 13 13 15 17 22 25 25 25 24 23 22 21 22 23 24 25 28 29 30 30 30 29 30 29 30 31 29 27 25 23 23 26 27 27 26 24 23 23 20 20 18 16 16 18 19 16 14 14 14 13 12 11 9 7
4 5 5 3 7 10 13 12 8 8 7 2 2 4 5 3 4 3 1 2 3 2 3 2 5 1 2 0 4 6 10 9 9 10 13 17 19 20 21 23 22 21 22 22 21 20 19 20 23 25 27 28 28 30 30 30 30 30 27 24 22 21 21 24 25 25 24 23 24 24 21 19 18 16 17 19 19 17 15 14 14 12 11 10 8 7
3 3 6 4 3 4 7 10 7 6 8 7 4 3 3 3 2 1 2 1 0 1 2 2 3 2 2 1 5 5 5 7 9 9 11 15 18 20 21 22 20 19 19 18 17 17 18 19 22 25 27 28 28 28 28 28 28 27 26 23 22 22 21 22 23 24 23 22 23 23 20 19 19 18 18 19 18 17 15 13 12 11 10 8 6 6
3 2 4 6 1 4 3 4 5 5 5 6 4 2 3 3 3 1 2 3 3 2 1 3 3 1 1 3 4 3 1 6 9 9 9 11 16 20 21 21 19 18 16 15 16 19 17 18 22 26 27 27 27 27 25 25 23 23 23 23 24 24 23 23 24 25 24 23 23 22 21 21 21 20 20 19 17 16 14 11 10 10 9 7 6 8
2 3 2 6 4 3 2 3 2 1 3 5 3 2 1 1 2 2 2 1 3 3 3 2 1 3 3 3 3 5 4 4 8 10 8 11 17 20 20 21 20 20 18 18 19 21 19 21 23 26 26 25 26 25 24 22 20 20 21 22 23 24 26 26 26 26 26 25 24 23 23 23 22 21 20 19 17 15 12 10 10 9 8 6 7 9
2 1 4 3 3 2 1 5 6 6 5 2 3 4 3 3 3 2 1 2 1 3 4 5 2 3 4 2 1 5 4 4 8 11 9 12 17 19 21 22 23 24 24 22 21 21 21 23 25 26 26 27 26 25 24 23 21 21 21 21 22 24 26 27 27 27 26 24 24 24 24 24 23 22 20 18 17 15 12 10 9 9 7 7 8 9
1 0 1 2 3 2 2 4 8 11 10 6 3 3 2 2 4 5 3 3 1 2 0 3 3 2 3 0 2 5 7 8 11 13 12 14 16 17 19 21 23 25 25 24 22 21 20 21 23 25 26 26 25 23 23 23 21 20 20 21 24 25 26 27 26 25 25 24 24 24 24 24 24 22 20 17 17 15 12 10 8 8 8 8 9 10
2 2 2 2 4 3 3 5 7 11 11 7 6 7 6 4 1 3 6 4 2 0 0 3 2 2 2 4 6 8 12 14 15 15 14 14 15 15 16 18 20 22 24 24 23 21 21 21 24 26 25 24 23 21 21 21 20 20 21 22 24 23 24 24 23 22 23 23 22 23 23 24 23 22 19 17 16 15 12 10 8 9 9 9 10 12
2 1 2 3 3 4 5 4 4 7 6 3 4 7 9 10 9 3 2 5 3 5 6 4 2 1 2 5 7 9 12 12 12 14 15 13 15 17 16 16 18 20 21 22 22 20 20 21 23 24 22 22 21 19 18 19 19 19 18 18 19 20 21 21 20 21 22 21 21 22 23 24 24 22 19 17 16 15 12 9 8 10 10 9 11 13
1 1 2 3 2 2 2 2 1 2 2 2 4 9 13 13 12 5 2 5 2 2 5 5 4 3 3 5 7 8 9 9 8 12 14 13 15 20 21 20 20 20 21 21 21 19 18 19 21 20 19 19 20 19 18 17 17 17 16 15 16 16 17 17 17 18 19 19 20 22 23 23 23 21 18 16 15 14 11 8 8 10 11 10 10 13
3 1 1 2 3 4 4 4 2 1 2 4 6 11 13 12 11 7 4 3 0 1 4 3 9 9 5 6 7 6 7 7 7 11 14 14 17 21 24 26 25 26 26 25 21 16 13 14 17 16 15 15 16 17 19 19 19 18 17 15 14 13 13 14 16 17 17 16 18 19 19 20 20 18 17 17 17 15 12 9 8 9 11 11 11 13
4 2 2 1 3 4 5 4 2 1 4 5 6 10 12 11 12 10 5 2 3 2 3 3 9 11 7 6 7 6 7 7 5 10 15 17 19 21 24 28 29 29 31 31 29 24 19 16 15 15 14 13 13 15 17 17 17 16 15 13 14 13 12 13 15 16 16 16 15 14 14 15 16 16 16 16 16 15 13 12 10 8 9 10 10 12
3 2 4 4 5 6 6 5 4 3 4 5 5 7 10 11 12 10 3 3 2 4 4 5 10 11 7 7 7 5 7 8 9 13 20 23 24 25 27 30 29 29 31 32 33 31 29 26 23 21 18 17 18 19 19 17 14 12 12 12 12 12 11 12 14 16 16 15 13 12 12 14 14 14 13 13 13 14 14 13 12 11 11 10 9 9
2 1 1 3 6 7 7 8 7 5 5 5 5 6 9 10 9 7 4 5 9 9 5 9 14 10 5 7 8 9 11 11 10 13 19 23 25 27 29 31 31 31 31 31 31 30 29 29 28 27 24 22 21 20 20 20 17 16 15 14 14 15 14 13 14 15 14 13 13 12 11 10 10 11 11 11 10 11 12 12 13 13 14 13 10 9
3 2 4 3 3 4 5 9 9 6 5 5 5 6 8 8 7 6 4 5 9 9 7 10 13 7 4 6 10 14 17 14 11 10 11 16 23 28 31 32 32 31 29 28 27 27 26 26 27 28 27 26 25 25 25 23 21 19 18 16 17 16 15 16 17 17 15 15 13 10 8 8 8 8 7 6 7 8 9 9 10 12 14 15 13 11
2 1 4 5 2 4 4 1 4 6 6 6 6 7 7 3 4 4 2 2 5 7 6 7 7 4 3 6 11 16 19 18 17 15 17 21 27 31 34 34 32 30 28 26 25 25 25 25 26 27 27 27 26 27 28 26 24 23 21 18 18 18 16 18 19 19 18 17 15 11 8 8 8 6 4 3 3 5 5 5 6 9 12 15 15 14
2 2 3 4 3 4 7 7 3 3 6 5 5 8 10 4 5 7 4 4 7 8 7 3 3 4 4 7 10 13 15 17 17 17 20 25 30 32 33 32 31 28 26 24 24 23 23 23 23 24 25 26 25 26 26 25 25 27 26 23 21 20 19 19 20 20 20 20 20 18 16 14 12 10 7 5 4 3 3 2 3 6 9 13 15 16
3 5 3 3 2 3 7 6 5 5 4 1 3 6 11 5 7 9 6 7 7 5 6 6 5 5 6 8 10 12 14 17 19 20 22 25 28 30 30 29 27 25 22 20 19 19 19 19 19 20 21 22 22 22 22 23 23 24 25 25 23 21 21 19 19 19 19 19 20 21 20 19 17 14 12 10 8 6 5 3 2 2 4 7 10 13
3 5 4 3 3 1 4 4 5 2 1 1 3 8 13 10 6 10 8 7 7 7 10 12 9 8 10 12 16 21 22 23 24 24 24 24 24 25 25 25 23 21 19 18 16 16 16 15 14 14 16 17 18 17 17 19 20 19 20 21 21 21 19 17 16 15 14 14 14 14 14 14 13 12 12 10 8 7 6 4 4 5 5 5 5 7
4 3 2 2 2 1 0 2 2 3 2 2 4 8 11 11 8 8 9 9 9 4 7 11 11 11 15 18 21 25 28 29 28 24 20 19 18 18 19 20 19 18 17 16 15 15 14 13 12 12 12 13 13 12 11 12 13 14 14 15 17 18 16 12 11 12 10 9 9 9 7 7 7 6 6 6 6 6 5 4 3 3 4 5 6 7
5 3 2 1 1 1 2 2 2 2 2 3 3 5 5 5 6 3 4 6 11 8 4 12 14 12 16 20 21 24 28 27 21 16 16 17 16 16 18 18 17 16 15 14 12 11 11 9 9 8 8 9 10 9 8 7 7 8 8 10 11 12 10 8 7 7 5 3 4 4 3 3 3 2 1 1 2 4 3 2 2 2 0 2 3 6
4 2 2 2 0 0 3 2 2 2 1 1 3 5 4 5 9 6 3 3 8 8 8 12 13 13 15 17 17 18 19 16 9 6 11 15 15 16 17 17 15 14 13 12 10 9 9 8 7 6 5 5 5 5 6 6 7 6 4 5 6 5 4 4 3 2 2 4 5 6 6 6 7 8 8 7 7 6 7 7 7 8 7 6 6 5
9 5 3 3 1 2 3 2 1 2 1 2 5 6 6 9 12 8 4 3 3 4 12 13 11 13 15 15 15 13 10 6 2 5 10 15 16 17 18 18 17 15 15 14 13 12 11 10 9 9 7 7 6 5 4 3 3 2 1 3 4 5 5 5 6 7 7 8 9 9 10 10 11 12 12 13 13 13 13 13 12 13 13 13 13 12
9 6 5 4 2 2 2 2 2 2 1 3 6 10 10 8 7 4 4 1 3 8 15 15 13 14 13 13 13 10 6 6 7 10 14 16 17 17 17 17 16 14 14 13 12 11 11 10 10 9 8 8 7 6 5 4 2 1 2 4 5 6 7 8 9 10 10 11 12 12 13 14 14 15 16 17 17 17 18 18 18 18 17 18 18 18
5 3 4 4 2 2 2 3 2 1 1 4 10 15 15 8 2 3 1 1 4 13 19 20 19 17 16 16 15 12 11 16 18 17 17 16 14 14 15 15 13 10 9 10 10 9 9 8 7 5 4 4 3 3 3 2 1 0 1 2 4 6 7 8 10 11 13 14 15 16 16 17 17 18 19 20 21 22 23 23 23 23 23 23 23 23
2 2 3 2 1 1 2 2 2 1 3 9 13 13 11 4 2 2 4 9 16 20 23 25 25 25 26 26 25 23 23 24 23 21 18 16 15 14 12 10 9 7 7 8 9 9 8 5 2 1 1 2 1 3 3 2 1 2 1 2 3 5 6 8 9 10 11 12 14 15 16 17 18 19 20 21 23 24 26 26 26 26 25 24 24 24
1 1 2 2 2 1 2 3 2 1 6 13 11 7 9 5 3 6 12 17 20 21 23 25 26 27 29 29 28 28 27 24 22 20 18 15 14 12 10 8 8 8 7 4 4 7 8 4 2 2 1 1 3 5 6 5 5 6 6 5 7 8 8 8 9 11 13 13 14 15 16 17 18 18 19 20 21 24 25 26 27 26 24 23 22 22
3 2 2 0 2 1 2 2 2 2 7 16 11 6 7 9 12 15 17 18 19 20 24 24 23 24 27 27 27 26 25 21 18 16 14 12 10 9 9 8 7 7 5 1 1 4 5 3 1 2 1 2 5 8 8 8 9 10 9 9 11 10 9 9 10 12 14 16 17 18 18 18 18 18 18 18 20 22 23 24 25 26 25 23 22 22
3 6 7 3 2 3 4 3 5 9 15 20 18 15 16 20 21 21 22 22 21 21 24 26 25 23 24 24 24 23 21 19 16 13 11 11 10 8 7 6 6 6 4 1 1 1 4 4 3 2 2 6 9 9 8 9 8 8 7 6 6 6 7 9 10 12 15 17 19 20 20 20 20 19 19 20 21 22 23 22 21 21 21 21 21 22
7 12 11 6 4 6 8 9 12 14 18 21 22 20 20 22 23 23 24 23 21 20 23 25 25 23 22 23 22 21 18 16 14 11 10 9 8 7 6 6 5 5 2 2 3 1 4 6 3 1 4 8 9 6 5 4 2 3 5 6 8 10 11 13 14 15 17 19 20 21 22 22 20 19 20 20 21 22 22 20 18 17 17 17 18 19
6 10 8 4 4 4 5 7 9 10 14 18 21 20 19 19 20 22 23 21 19 17 17 18 18 18 18 17 16 16 15 13 12 10 8 6 6 6 7 6 4 3 2 2 4 2 4 7 4 2 3 4 4 3 0 3 4 5 8 10 12 14 16 18 19 19 20 21 22 22 22 21 19 18 18 19 19 20 20 19 17 18 18 18 17 17
5 8 6 3 4 4 5 7 10 12 14 16 17 18 17 15 15 17 18 18 18 16 14 12 12 12 13 11 10 11 11 10 10 9 6 4 6 8 8 6 4 3 1 3 4 1 5 6 3 2 4 1 3 4 3 5 5 7 10 12 15 17 19 19 19 20 21 21 21 20 18 16 16 17 19 20 21 22 21 20 19 19 19 18 18 19
9 8 4 4 5 5 6 10 11 11 12 13 15 15 14 12 13 13 14 14 16 16 14 12 10 10 12 11 8 8 8 7 7 6 4 4 6 6 5 4 3 2 1 2 1 4 5 3 2 4 4 1 4 5 5 5 7 9 12 14 17 18 18 19 21 22 19 17 15 14 14 16 18 20 21 21 21 22 22 21 20 21 21 20 19 19
9 5 3 4 5 3 4 7 9 6 7 10 12 12 11 11 12 13 13 14 14 13 11 11 10 9 11 10 7 7 8 7 6 5 4 4 6 5 4 5 4 2 0 1 2 3 2 2 2 2 2 0 3 4 5 6 9 10 12 14 17 18 20 22 22 19 14 12 13 14 17 19 20 19 18 18 19 20 22 22 20 20 21 21 21 20
8 5 5 5 5 4 5 8 11 10 9 12 13 12 11 12 13 15 14 12 11 10 10 10 10 10 10 8 7 7 9 8 7 5 4 5 4 4 3 4 3 0 1 1 0 1 3 4 4 4 2 1 5 5 6 7 8 10 13 16 18 19 18 17 15 12 11 12 13 15 16 18 19 19 19 19 20 22 24 24 22 19 18 18 19 20
Wind_Direction
195 200 226 220 223 225 227 224 233 249 247 248 256 260 257 252 245 242 240 239 239 218 203 203 184 195 214 224 240 250 261 259 205 157 141 150 155 160 166 169 176 179 179 179 178 178 180 186 192 193 194 188 184 179 166 159 159 158 162 162 155 154 156 154 155 153 154 156 149 141 139 139 138 130 122 126 141 141 131 132 133 139 146 149 149 144
197 209 226 225 225 229 235 228 224 239 253 259 263 276 278 278 272 265 266 252 235 218 203 194 181 196 205 214 232 239 256 256 181 150 143 152 156 162 166 170 178 180 178 178 175 176 180 186 190 189 186 178 173 169 158 154 154 154 161 163 155 153 155 158 160 154 152 150 144 143 146 146 143 138 137 145 154 155 149 147 144 146 151 143 130 129
200 232 230 223 225 231 239 238 227 228 244 257 263 276 277 279 288 284 285 274 248 210 193 186 186 205 201 209 223 219 221 202 168 153 153 158 160 165 169 173 180 179 176 178 176 176 177 175 177 173 164 160 158 151 143 149 154 154 161 166 160 156 156 161 164 158 152 149 145 147 148 144 142 144 150 156 163 174 178 171 157 144 135 128 117 103
215 233 223 220 228 233 238 241 236 228 237 243 237 257 267 264 275 281 289 285 267 194 165 168 179 226 209 209 226 221 198 187 183 170 161 166 169 168 172 177 180 177 174 176 172 168 156 134 138 147 152 153 147 144 144 151 161 162 163 167 164 160 160 162 162 158 154 150 148 147 144 140 141 145 154 166 174 181 186 178 157 146 138 129 128 121
241 238 215 212 227 232 237 243 238 217 228 242 226 224 250 263 266 273 300 318 335 356 107 114 83 314 252 207 244 255 216 188 191 178 156 164 169 166 172 178 178 179 178 169 150 132 117 108 102 117 144 148 141 155 159 157 165 166 162 165 164 162 163 162 159 158 154 151 150 148 145 144 146 151 163 167 161 160 172 168 145 143 143 136 154 183
240 242 217 205 222 229 232 241 236 209 212 267 239 218 237 267 277 289 309 335 357 330 356 84 79 302 291 239 265 276 245 206 189 171 139 150 159 162 167 171 174 175 163 145 131 117 117 123 116 113 126 134 146 161 162 159 165 165 162 163 163 162 164 162 160 159 156 153 155 152 147 149 154 164 170 157 147 149 162 160 145 149 150 149 166 191
230 239 225 209 214 217 223 236 231 202 187 261 257 246 250 262 271 279 297 314 340 278 278 92 120 257 309 293 267 254 232 228 181 153 128 141 154 160 163 166 168 157 133 131 133 125 130 137 134 125 126 137 145 149 152 156 162 163 163 164 163 164 164 163 162 161 160 159 160 155 150 154 162 167 158 144 144 151 158 161 156 158 157 159 172 187
212 226 234 228 214 210 218 227 206 168 163 226 247 275 273 268 262 255 263 271 250 235 251 149 125 170 295 284 272 260 238 239 166 140 126 140 153 158 161 165 161 143 132 132 117 109 129 143 135 129 134 139 137 136 144 154 162 165 166 166 167 168 168 167 165 163 165 166 163 156 153 160 164 161 151 148 157 165 173 175 163 164 163 169 186 191
205 208 226 240 238 231 215 194 175 154 165 232 222 250 263 268 266 250 231 249 249 175 269 257 128 126 275 270 282 288 270 248 183 154 145 144 149 155 158 156 148 137 134 127 113 110 120 129 136 132 129 135 139 143 153 163 169 169 168 168 170 173 173 171 168 165 166 166 160 154 154 160 160 160 163 169 175 181 188 178 159 160 161 170 184 172
216 203 213 229 236 236 207 163 161 161 196 224 220 240 257 268 274 260 225 220 119 175 249 258 144 120 280 273 283 314 291 241 210 159 146 143 147 156 149 131 133 134 129 124 121 123 123 127 141 138 134 144 147 146 155 168 175 173 171 172 174 177 177 174 171 168 168 165 160 157 161 164 159 165 181 185 183 186 183 165 151 160 176 196 196 173
252 227 218 217 215 243 265 181 180 209 222 216 215 235 258 268 275 269 228 164 108 217 239 240 174 141 244 279 255 145 282 246 176 115 127 141 145 151 134 119 129 133 128 129 128 128 129 129 132 135 148 159 156 152 154 165 174 175 175 176 176 179 179 175 172 171 171 166 162 164 170 171 164 168 184 183 180 180 173 159 157 178 195 205 202 190
250 239 236 195 187 201 265 251 232 230 225 219 214 211 236 281 304 308 258 158 140 245 227 194 204 173 191 270 260 164 334 328 129 124 130 139 136 136 124 119 127 128 126 133 133 131 132 130 131 148 162 165 165 163 159 164 173 176 178 179 179 179 178 176 173 173 172 167 165 170 176 178 172 171 179 176 172 173 168 158 163 185 199 203 206 205
243 232 254 206 181 181 192 234 253 254 227 215 221 191 194 286 348 322 241 190 191 240 209 187 205 211 207 252 273 48 29 50 125 139 140 137 126 116 117 122 125 124 128 135 136 136 138 138 149 165 169 170 170 167 161 163 173 179 183 182 180 180 179 176 175 174 173 168 168 177 186 185 176 173 174 171 170 170 164 158 163 181 198 213 225 207
279 263 256 235 164 169 192 211 220 251 230 201 201 170 174 203 43 280 252 209 211 224 209 201 209 228 258 342 68 61 49 77 107 130 134 134 125 110 113 125 126 124 130 137 137 139 145 150 159 167 171 173 172 170 166 165 173 182 186 184 182 182 179 177 176 175 175 172 173 186 197 190 178 174 173 172 174 168 161 162 169 186 200 211 218 204
241 264 247 244 190 167 193 222 215 240 249 193 176 151 162 165 163 232 226 180 217 250 245 225 215 196 190 217 106 85 62 76 90 107 119 122 120 113 115 124 125 122 131 141 142 146 153 157 164 169 172 175 175 174 171 166 169 178 183 186 188 187 182 179 179 180 180 178 181 191 196 189 180 178 177 178 177 169 165 172 178 189 203 210 210 218
236 247 215 217 219 180 184 217 224 260 299 267 165 148 196 187 173 222 206 170 174 56 336 250 243 235 171 228 111 98 75 69 82 91 103 117 123 120 120 127 127 121 128 142 146 150 155 159 165 169 170 175 177 172 169 167 168 174 179 183 188 192 189 184 183 185 185 182 185 192 190 185 182 179 180 179 175 172 172 175 181 192 207 218 217 225
226 256 240 212 217 203 190 195 203 216 249 300 235 195 222 188 145 156 273 286 103 97 297 127 84 331 36 339 344 90 84 65 68 71 80 103 120 124 126 131 131 121 120 135 141 143 147 153 162 167 167 172 171 166 166 168 171 175 180 184 186 190 194 193 192 191 189 183 185 191 186 181 183 181 180 178 174 177 179 177 187 200 210 218 222 230
216 255 295 244 219 222 202 188 205 201 164 147 258 214 214 161 108 109 155 340 40 110 263 135 126 51 55 296 320 51 75 71 68 66 61 66 85 105 116 122 125 120 121 129 131 131 138 146 155 162 167 169 166 166 167 169 172 175 181 187 186 188 196 200 199 197 193 186 186 188 182 181 186 182 180 179 177 181 183 182 192 205 210 211 221 228
232 260 297 267 209 264 215 182 213 227 170 173 212 178 125 110 75 35 144 177 196 198 295 41 103 80 66 310 325 9 67 86 76 68 64 60 69 87 102 111 116 119 125 128 128 136 144 146 151 158 164 167 168 170 172 171 172 174 179 184 182 185 194 200 200 198 196 193 190 186 181 184 187 182 183 186 185 185 184 185 193 201 204 204 207 198
209 155 292 289 51 7 318 182 200 237 208 204 212 108 92 137 147 145 175 170 168 191 322 9 351 1 356 316 347 356 20 99 92 74 68 67 69 80 98 113 116 118 125 128 138 155 148 132 144 156 159 163 167 172 173 171 171 174 178 180 179 180 187 197 199 196 196 196 194 189 184 186 187 185 190 193 190 185 181 184 192 197 197 191 173 160
293 135 211 292 356 42 323 270 208 219 247 226 200 160 147 124 117 138 205 186 140 154 154 128 276 273 272 304 17 41 17 56 92 88 77 74 75 80 96 114 124 124 129 137 149 160 145 120 132 150 154 158 162 166 167 167 171 176 180 184 186 185 186 192 197 198 198 199 198 194 189 189 190 190 194 197 193 186 180 184 190 189 187 171 153 151
346 150 186 247 326 89 161 315 350 17 346 267 189 201 180 135 118 121 289 302 79 124 161 152 165 276 270 270 33 64 44 26 67 84 80 73 79 83 90 108 124 126 128 135 140 148 143 127 129 140 147 155 160 159 160 166 175 180 184 188 190 190 190 194 198 198 198 199 201 200 196 195 195 194 195 197 195 188 183 186 187 183 178 159 147 147
117 158 196 218 250 167 132 341 5 21 3 360 42 3 353 105 129 140 178 257 355 37 73 113 108 278 281 122 86 79 72 46 49 73 83 77 82 87 90 101 118 123 124 125 123 128 132 126 129 137 144 150 153 153 158 169 178 181 186 189 189 191 194 195 198 198 197 201 203 203 201 200 200 201 199 196 192 188 186 188 184 179 177 161 147 143
357 24 1 316 306 339 11 2 27 36 22 14 26 22 15 7 21 159 171 166 133 131 29 78 101 257 332 60 71 69 66 52 42 52 65 74 84 88 88 94 106 118 121 116 114 117 122 123 127 132 134 136 140 149 158 164 171 179 186 188 189 192 192 192 197 201 202 203 202 201 201 201 204 206 202 191 186 187 189 187 181 180 178 164 150 145
344 17 45 21 352 346 337 340 17 26 29 24 356 16 24 14 11 14 137 108 123 186 159 130 161 202 71 70 71 67 67 60 46 47 55 70 83 82 80 86 97 110 114 111 110 111 113 117 120 121 123 124 129 143 154 157 164 173 178 181 184 188 187 189 198 205 209 208 204 203 205 205 205 205 197 186 184 189 189 183 179 180 176 167 154 149
80 202 91 83 148 185 234 238 247 323 9 12 354 21 29 21 17 14 113 90 83 184 132 127 149 133 87 79 79 79 83 77 67 69 69 72 84 86 87 89 92 95 98 101 107 109 109 113 119 122 126 128 132 137 142 147 153 157 161 168 177 182 184 188 193 198 204 209 206 205 206 203 198 193 186 181 182 188 191 187 184 181 176 173 160 153
79 356 72 128 194 189 189 188 189 182 75 39 12 28 34 28 27 38 71 78 12 59 63 124 142 127 121 114 102 97 95 85 78 87 82 69 71 80 83 84 83 79 78 82 91 99 108 121 127 126 125 131 138 140 139 136 135 139 147 156 160 163 172 183 189 188 190 197 201 203 204 199 191 185 184 182 181 183 188 189 188 182 180 182 172 165
82 7 308 271 255 221 197 174 148 94 75 57 34 35 39 37 39 52 66 289 263 102 78 146 132 120 128 135 129 126 109 102 104 107 106 98 93 91 87 82 79 74 73 77 79 79 82 97 112 112 110 114 113 116 124 126 128 134 138 141 149 157 164 174 178 177 178 186 189 188 189 187 185 187 188 184 181 183 186 187 187 184 182 187 186 181
90 199 215 217 216 209 192 163 138 122 100 75 56 51 52 49 50 60 58 309 348 102 151 158 116 107 123 128 127 138 128 131 143 135 128 125 121 115 104 93 84 79 77 79 78 76 75 78 86 90 95 101 99 100 105 109 114 122 119 116 125 135 141 148 151 154 163 172 169 163 165 170 175 184 187 183 181 183 187 189 191 190 182 187 203 203
24 261 251 225 218 205 181 167 157 148 141 132 123 99 79 72 70 69 42 21 50 62 90 112 99 86 101 113 111 120 124 130 137 133 131 130 126 117 105 95 87 82 79 79 79 79 77 76 79 81 85 91 93 95 100 102 103 107 109 107 103 103 106 112 118 126 135 139 138 143 154 162 170 179 183 184 187 190 194 196 199 200 190 187 202 215
36 308 353 358 258 240 193 169 160 154 152 147 134 104 85 88 89 80 54 45 59 49 41 85 98 87 69 90 99 104 104 94 78 77 93 106 111 107 97 91 88 84 82 81 81 80 79 78 79 79 80 83 84 85 88 93 97 100 105 108 103 97 95 96 95 95 98 100 100 107 122 135 152 166 170 180 198 203 203 204 205 204 197 192 198 208
66 332 2 32 20 314 319 89 137 135 117 89 56 27 10 39 108 110 105 81 103 105 75 64 86 107 119 107 93 86 81 72 62 57 62 75 88 94 91 89 89 87 84 83 81 79 78 78 78 77 76 77 79 80 81 85 89 89 92 102 106 101 99 103 101 96 94 92 85 80 84 97 112 124 128 143 178 181 183 199 209 204 200 200 204 209
122 112 41 40 42 333 335 352 14 80 81 55 11 343 322 300 132 114 97 106 123 128 121 105 113 130 128 105 86 74 70 68 63 62 70 78 85 88 88 88 89 87 83 81 78 75 75 75 75 76 75 74 74 75 77 81 84 80 80 91 102 103 103 106 107 103 103 103 99 92 85 80 81 81 73 61 62 91 117 168 216 216 213 212 216 219
113 113 91 65 83 318 319 347 25 55 70 349 296 329 325 312 126 115 108 118 122 117 115 125 129 113 96 90 90 87 84 83 81 80 83 86 88 88 89 90 90 89 88 88 85 81 80 80 78 78 79 77 75 76 79 80 80 80 81 86 91 94 97 101 105 106 107 107 103 99 96 95 92 85 74 63 54 50 41 13 313 272 248 234 232 233
99 103 105 115 123 267 311 12 47 68 159 257 324 356 351 349 70 103 103 90 87 106 122 128 134 123 109 107 107 103 99 96 95 92 92 92 92 92 92 92 92 94 96 99 101 100 97 94 89 88 90 87 81 83 87 83 80 81 83 83 83 85 90 98 101 101 101 99 95 95 100 104 107 106 98 90 84 76 60 34 3 349 330 303 281 266
98 85 93 110 113 148 349 55 102 176 135 44 355 1 5 359 17 74 86 46 19 30 130 131 128 118 112 111 109 107 104 98 92 89 92 95 94 93 93 93 96 99 100 101 104 106 106 107 107 106 107 106 99 96 94 85 82 83 79 78 83 87 92 100 101 100 103 97 85 84 88 89 97 114 119 116 122 119 105 92 70 32 357 338 324 309
111 100 59 58 30 133 132 86 101 143 65 34 349 342 6 1 341 9 90 32 359 354 85 117 112 107 111 113 112 111 104 92 79 75 87 94 94 94 95 96 98 99 98 96 95 95 95 98 103 106 116 127 129 127 125 120 117 110 89 81 90 99 106 110 105 104 106 84 49 44 38 31 21 10 7 192 196 193 198 201 183 167 86 352 326 311
85 113 131 143 241 169 128 107 80 115 71 351 312 305 332 353 332 329 81 53 350 4 71 111 117 116 118 117 117 115 102 83 63 75 95 96 96 96 95 94 93 94 94 91 87 86 84 80 81 87 98 113 123 134 147 157 161 150 109 73 81 93 98 87 56 31 2 337 331 332 328 321 317 311 300 290 282 266 258 256 249 242 240 243 251 262
34 37 69 109 89 36 91 95 67 112 120 318 306 305 338 354 333 333 67 86 311 54 81 88 102 112 115 116 118 114 98 75 92 146 120 105 98 98 97 94 92 93 93 89 82 82 89 91 93 95 92 87 84 83 92 116 155 178 291 334 346 352 348 339 329 324 320 316 311 308 304 299 295 293 288 285 284 280 276 273 267 262 258 255 256 255
27 22 29 49 53 29 64 78 64 72 49 317 308 309 318 330 333 4 78 100 220 144 121 111 112 115 116 116 111 105 108 128 143 142 125 108 96 91 88 86 85 86 86 83 76 75 78 76 78 81 75 69 71 74 78 78 67 22 327 311 309 315 315 306 303 303 298 294 292 288 286 284 283 282 282 282 283 282 281 278 276 274 271 267 266 265
31 26 26 35 46 22 45 84 86 66 322 296 300 309 313 315 7 58 124 204 110 120 124 121 116 110 102 98 93 89 111 128 132 130 121 110 102 95 89 90 94 94 95 100 99 92 79 70 74 77 56 47 57 62 76 100 109 279 271 280 285 290 291 287 284 283 282 282 281 280 280 280 279 278 278 278 279 278 277 277 276 275 273 272 272 272
23 24 27 20 354 9 75 95 105 112 335 315 308 324 351 23 106 62 76 90 89 98 107 107 106 102 96 95 95 97 107 118 123 122 119 116 114 108 106 111 110 98 99 113 118 115 108 106 133 136 43 8 6 25 39 71 63 10 314 282 292 300 302 300 296 295 294 293 290 286 285 284 282 282 281 280 280 279 277 276 276 275 275 274 273 274
21 83 82 36 340 15 76 70 93 168 343 346 341 350 14 36 123 97 81 82 84 92 100 101 103 104 102 101 103 105 108 111 113 114 115 117 116 113 112 114 106 96 96 99 111 123 129 143 186 175 170 314 6 44 55 62 51 35 22 0 346 340 334 329 325 318 311 306 301 297 293 290 287 286 285 285 283 281 279 277 276 275 276 276 275 276
355 28 102 351 324 54 83 60 116 141 20 22 46 81 49 59 92 95 85 76 72 83 93 95 99 106 108 107 108 110 112 113 114 119 120 116 118 123 125 124 122 123 132 167 123 121 131 133 113 140 204 1 52 65 57 48 43 36 23 2 351 349 344 333 324 316 311 308 306 303 299 296 294 292 290 288 286 284 282 281 280 278 277 277 277 278
48 92 95 67 30 74 102 115 105 88 60 53 67 80 74 79 92 97 90 77 68 75 86 89 93 101 107 108 107 107 112 115 118 123 124 119 120 125 130 133 128 119 123 221 305 113 129 118 105 124 59 47 57 56 40 34 36 28 16 358 342 329 314 307 302 301 301 301 302 302 301 300 298 296 293 292 290 289 289 290 290 288 285 282 280 280
98 103 98 89 88 83 80 85 86 81 74 72 74 73 73 81 91 97 96 86 77 79 85 88 92 97 102 105 103 100 103 108 112 116 122 126 127 128 131 131 120 115 138 253 304 332 125 120 113 117 70 55 47 40 37 44 28 346 325 306 296 293 292 293 291 291 293 293 294 296 296 298 299 296 294 293 292 290 289 290 292 291 288 288 285 282
61 78 85 104 128 104 78 80 88 93 92 87 81 76 76 81 87 93 96 95 94 93 91 93 99 100 101 101 99 98 102 107 109 111 115 116 121 138 144 137 121 124 166 256 304 324 132 133 125 115 96 58 23 10 281 234 256 285 292 290 287 285 285 287 287 288 290 290 291 291 293 296 298 297 297 298 295 289 283 278 278 279 281 285 287 284
36 56 71 96 95 97 115 119 114 108 103 97 90 86 84 86 90 94 94 95 99 100 98 100 106 106 105 102 99 105 114 118 116 115 117 125 139 147 143 137 137 135 136 293 301 18 125 134 139 182 187 170 4 344 297 277 277 281 286 288 286 285 286 288 291 293 292 290 289 289 291 293 294 295 298 298 297 295 289 282 278 277 278 281 285 289
53 52 68 101 93 90 116 128 125 113 100 96 97 97 95 96 101 102 95 91 94 96 97 101 104 104 107 109 112 121 126 128 125 120 119 144 155 154 147 160 201 223 298 302 314 106 119 153 234 227 206 197 354 323 288 289 291 284 285 287 288 292 297 300 302 302 301 298 296 294 294 293 292 294 296 296 296 300 299 293 286 280 278 276 276 281
59 59 60 84 102 112 119 131 135 120 104 111 115 117 121 120 116 112 103 94 91 92 95 100 100 100 104 105 110 124 126 129 138 126 95 107 138 146 157 184 213 244 224 143 110 102 141 204 207 175 156 328 304 283 282 297 297 292 291 293 296 299 301 301 302 306 309 308 306 304 302 302 303 307 310 310 309 309 307 302 295 285 278 276 272 269
74 100 98 90 118 144 141 144 142 132 130 140 140 136 138 139 132 125 118 113 113 112 113 115 115 116 118 118 120 127 124 126 144 141 89 87 129 144 165 199 221 296 111 134 279 202 169 153 145 129 105 271 267 281 304 307 303 300 298 301 306 308 306 305 310 319 323 319 316 315 313 316 322 327 328 326 322 319 315 311 306 297 286 281 278 269